[[{"header":{"parameterUnit":"m.s-1","parameterCategory":1,"la1":30.2991,"la2":30.254,"lo1":-89.0895,"lo2":-89.0444,"dy":0.0017,"dx":0.0017,"nx":28,"ny":28,"refTime":"2023-10-07T09:00:00:Z","depth":0,"parameterNumber":2,"parameterNumberName":"U-component_of_WINDS"},"data":[0,0,0,0,0,0,0,0,0,0,0,0,0,0,0,0,0,0,0,0,0,0,0,0,0,0,0,0,0,0,0,0,0,0,0,0,0,0,0,0,0,0,0,0,0,0,0,0,0,0,0,0,0,0,0,0,0,0,-1.7771,-1.7772,0,-1.7798,-1.7798,-1.7798,-1.7767,-1.7766,-1.7765,-1.7764,-1.779,-1.7792,-1.7794,0,0,0,0,0,0,0,0,0,0,0,0,0,-1.7693,-1.7694,-1.7771,-1.7772,-1.7772,-1.7798,-1.7798,-1.7798,-1.7768,-1.7766,-1.7765,-1.7763,-1.779,-1.7792,-1.7794,0,0,0,0,0,0,0,0,0,0,0,0,0,-1.7724,-1.7695,-1.7771,-1.776,-1.7759,-1.7798,-1.7798,-1.7798,-1.7768,-1.7766,-1.7764,-1.7763,-1.7789,-1.7792,-1.7794,-1.7846,0,0,-1.7803,-1.7804,0,0,0,0,0,0,0,0,-1.7722,-1.7727,-1.7761,-1.7761,-1.776,-1.7777,-1.778,-1.7814,-1.7768,-1.7764,-1.7764,-1.7762,-1.7788,-1.779,-1.7799,-1.7847,-1.7848,-1.7803,-1.7804,-1.7806,-1.7806,0,0,0,0,0,0,0,-1.772,-1.7725,-1.7782,-1.7762,-1.7761,-1.7753,-1.7755,-1.7786,-1.7785,-1.7765,-1.7762,-1.7766,-1.7787,-1.7796,-1.7799,-1.7848,-1.7803,-1.7805,-1.7807,-1.7808,-1.7939,-1.7941,0,0,0,0,0,0,-1.7719,-1.7724,-1.7781,-1.7782,-1.7736,-1.7756,-1.7758,-1.7774,-1.7785,-1.7785,-1.7768,-1.7765,-1.7793,-1.7796,-1.78,-1.7861,-1.7806,-1.7808,-1.781,-1.7937,-1.7939,-1.7941,0,0,0,0,0,0,-1.7718,-1.7725,-1.778,-1.7753,-1.7759,-1.7759,-1.7776,-1.7775,-1.7785,-1.7787,-1.7787,-1.7778,-1.7792,-1.7796,-1.7834,-1.7861,-1.7809,-1.7812,-1.7935,-1.7938,-1.794,-1.7983,0,0,0,0,0,0,-1.7715,-1.7724,-1.7744,-1.7753,-1.7761,-1.7814,-1.7778,-1.7777,-1.7789,-1.7786,-1.7797,-1.7797,-1.7791,-1.7831,-1.7837,-1.7864,-1.7814,-1.7932,-1.7936,-1.7939,-1.7979,-1.7987,-1.7993,0,0,0,0,0,-1.7713,-1.7755,-1.7745,-1.7752,-1.7785,-1.7816,-1.782,-1.7812,-1.7792,-1.7811,-1.7813,-1.7796,-1.7857,-1.7835,-1.7842,-1.787,-1.7931,-1.7935,-1.7939,-1.7976,-1.7985,-1.7993,0,0,0,0,0,0,-1.7749,-1.7756,-1.7745,-1.7792,-1.7803,-1.7811,-1.7835,-1.7823,-1.784,-1.7836,-1.7825,-1.7828,-1.7869,-1.7873,-1.7848,-1.792,-1.789,-1.7896,-1.7916,-1.7925,-1.7932,-1.7931,-1.7816,0,0,0,0,0,-1.7762,-1.7787,-1.7791,-1.7832,-1.7838,-1.7836,-1.7849,-1.7842,-1.7853,-1.7858,-1.7862,-1.7874,-1.7896,-1.791,-1.793,-1.7979,-1.7981,-1.8002,-1.8009,-1.8015,-1.802,-1.8046,-1.8056,-1.7955,-1.7955,-1.7955,0,0,-1.779,-1.7797,-1.7813,-1.7839,-1.7848,-1.7873,-1.784,-1.7869,-1.7887,-1.7862,-1.7899,-1.7902,-1.7914,-1.7958,-1.7977,-1.7963,-1.8048,-1.802,-1.8025,-1.8027,-1.8052,-1.8061,-1.807,-1.7958,-1.7958,-1.7957,0,0,-1.7854,-1.7862,-1.7897,-1.7905,-1.7918,-1.7916,-1.7924,-1.7933,-1.7935,-1.7971,-1.7953,-1.7974,-1.8012,-1.8021,-1.8031,-1.8098,-1.8083,-1.8104,-1.8142,-1.8168,-1.8176,-1.8182,-1.8207,-1.8215,-1.811,-1.811,-1.811,0,-1.7888,-1.7926,-1.7916,-1.7946,-1.7957,-1.7936,-1.7971,-1.7979,-1.7998,-1.8007,-1.799,-1.8036,-1.8043,-1.8088,-1.8105,-1.8113,-1.8122,-1.8104,-1.8175,-1.8182,-1.8188,-1.8211,-1.822,-1.8112,-1.8112,-1.8112,-1.8111,0,-1.7966,-1.7992,-1.8019,-1.8038,-1.8052,-1.8084,-1.8079,-1.8095,-1.8086,-1.8085,-1.8122,-1.8129,-1.815,-1.816,-1.8152,-1.8204,-1.8195,-1.8177,-1.8147,-1.8201,-1.8222,-1.8231,-1.8116,-1.8115,-1.8114,-1.8114,0,0,-1.8055,-1.8068,-1.8077,-1.8086,-1.8098,-1.8118,-1.8148,-1.8169,-1.8183,-1.8196,-1.8221,-1.8253,-1.8236,-1.8247,-1.8239,-1.8261,-1.8314,-1.824,-1.8241,-1.8254,-1.8372,-1.8387,-1.8397,-1.8304,-1.8305,-1.8307,-1.8372,0,-1.812,-1.8174,-1.8165,-1.8217,-1.8241,-1.822,-1.8247,-1.8257,-1.8257,-1.8277,-1.8276,-1.8299,-1.8275,-1.8282,-1.8302,-1.8303,-1.8338,-1.8298,-1.8327,-1.8329,-1.8326,-1.8408,-1.8424,-1.8485,-1.838,-1.8381,-1.8382,0,-1.8203,-1.822,-1.8274,-1.8282,-1.8292,-1.8316,-1.8334,-1.8353,-1.8364,-1.8362,-1.8374,-1.8362,-1.8392,-1.8361,-1.8402,-1.8375,-1.8386,-1.8388,-1.839,-1.8394,-1.836,-1.8415,-1.8504,-1.8514,-1.8395,-1.8394,-1.8393,0,-1.8264,-1.8299,-1.8336,-1.8344,-1.8354,-1.8371,-1.8376,-1.8385,-1.8397,-1.8413,-1.8421,-1.8439,-1.845,-1.8464,-1.8457,-1.8435,-1.8499,-1.8468,-1.8499,-1.8499,-1.8515,-1.8514,-1.8608,-1.852,-1.852,-1.852,-1.852,0,-1.8338,-1.8372,-1.8364,-1.8387,-1.8424,-1.8413,-1.845,-1.8452,-1.846,-1.8483,-1.8465,-1.8487,-1.8476,-1.8496,-1.8491,-1.8526,-1.853,-1.853,-1.8528,-1.8532,-1.8532,-1.854,-1.8536,-1.8522,-1.8522,-1.8521,-1.8521,0,-1.8413,-1.8408,-1.8447,-1.8453,-1.8455,-1.8483,-1.8487,-1.8508,-1.8506,-1.8535,-1.8541,-1.8538,-1.8561,-1.8555,-1.8581,-1.8577,-1.8621,-1.8614,-1.8618,-1.8616,-1.8648,-1.8646,-1.8752,-1.8765,-1.8668,-1.8669,-1.8669,0,-1.8461,-1.8487,-1.8495,-1.8509,-1.8515,-1.8538,-1.8551,-1.8541,-1.8555,-1.8568,-1.8588,-1.8609,-1.8626,-1.8664,-1.8663,-1.8682,-1.8676,-1.8711,-1.8678,-1.8681,-1.8677,-1.8676,-1.8679,-1.8718,-1.8719,-1.872,-1.8721,0,-1.8547,-1.8543,-1.8563,-1.8581,-1.8597,-1.8611,-1.8624,-1.8636,-1.8626,-1.8643,-1.8667,-1.868,-1.8705,-1.8726,-1.8744,-1.8748,-1.8733,-1.8731,-1.8739,-1.8744,-1.8746,-1.8746,-1.8637,-1.8729,-1.8728,-1.8728,-1.8727,-1.8727,-1.861,-1.8632,-1.8642,-1.8664,-1.8672,-1.8683,-1.8704,-1.8704,-1.8723,-1.8744,-1.8736,-1.8763,-1.8772,-1.8793,-1.88,-1.882,-1.8807,-1.8819,-1.8822,-1.8825,-1.8829,-1.8742,-1.8823,-1.8823,-1.8823,-1.8822,-1.8822,0,-1.8696,-1.8701,-1.8721,-1.8739,-1.8756,-1.874,-1.8753,-1.8768,-1.8792,-1.8802,-1.8818,-1.8845,-1.8866,-1.8867,-1.8886,-1.8902,-1.8896,-1.8907,-1.8907,-1.8908,-1.884,-1.8831,-1.8912,-1.8912,-1.8912,-1.8912,-1.8912,-1.8912,-1.8743,-1.8779,-1.8777,-1.8816,-1.882,-1.8847,-1.8856,-1.8866,-1.8874,-1.8904,-1.8921,-1.8922,-1.8928,-1.8947,-1.8965,-1.8964,-1.8973,-1.8987,-1.8984,-1.8921,-1.8913,-1.8904,-1.8896,-1.8989,-1.8989,-1.905,-1.9051,-1.9051]},{"header":{"parameterUnit":"m.s-1","parameterCategory":1,"la1":30.2991,"la2":30.254,"lo1":-89.0895,"lo2":-89.0444,"dy":0.0017,"dx":0.0017,"nx":28,"ny":28,"refTime":"2023-10-07T09:00:00:Z","depth":0,"parameterNumber":3,"parameterNumberName":"V-component_of_WINDS"},"data":[0,0,0,0,0,0,0,0,0,0,0,0,0,0,0,0,0,0,0,0,0,0,0,0,0,0,0,0,0,0,0,0,0,0,0,0,0,0,0,0,0,0,0,0,0,0,0,0,0,0,0,0,0,0,0,0,0,0,-6.9421,-6.9422,0,-6.9499,-6.95,-6.9501,-6.9448,-6.9446,-6.9443,-6.9441,-6.9516,-6.952,-6.9524,0,0,0,0,0,0,0,0,0,0,0,0,0,-6.9221,-6.9225,-6.9421,-6.9422,-6.9423,-6.9499,-6.95,-6.9501,-6.9448,-6.9445,-6.9442,-6.944,-6.9514,-6.9519,-6.9524,0,0,0,0,0,0,0,0,0,0,0,0,0,-6.9304,-6.9226,-6.9421,-6.9406,-6.9405,-6.9499,-6.95,-6.9502,-6.9449,-6.9445,-6.9442,-6.9438,-6.9513,-6.9519,-6.9525,-6.9636,0,0,-6.9545,-6.9547,0,0,0,0,0,0,0,0,-6.9299,-6.9311,-6.9407,-6.9407,-6.9406,-6.946,-6.9457,-6.9547,-6.945,-6.9432,-6.9441,-6.9437,-6.95,-6.9507,-6.9529,-6.964,-6.9643,-6.9545,-6.9549,-6.9552,-6.9553,0,0,0,0,0,0,0,-6.9294,-6.9308,-6.9452,-6.9408,-6.9408,-6.9394,-6.9401,-6.9474,-6.9485,-6.9433,-6.943,-6.944,-6.9499,-6.9523,-6.9531,-6.9644,-6.9545,-6.9551,-6.9554,-6.9557,-6.9851,-6.9854,0,0,0,0,0,0,-6.929,-6.9303,-6.9449,-6.9454,-6.9343,-6.94,-6.9409,-6.9447,-6.9484,-6.9487,-6.9443,-6.9437,-6.9514,-6.9523,-6.9533,-6.9667,-6.9552,-6.9558,-6.9561,-6.9847,-6.9851,-6.9856,0,0,0,0,0,0,-6.9286,-6.9303,-6.9446,-6.9378,-6.9395,-6.9407,-6.945,-6.945,-6.9474,-6.9492,-6.9493,-6.9466,-6.9512,-6.9524,-6.9612,-6.9669,-6.956,-6.9566,-6.9842,-6.9848,-6.9854,-6.9935,0,0,0,0,0,0,-6.928,-6.9302,-6.9346,-6.9379,-6.9399,-6.9525,-6.9454,-6.9454,-6.9486,-6.9479,-6.9514,-6.9516,-6.951,-6.9603,-6.9618,-6.9676,-6.9571,-6.9837,-6.9845,-6.9852,-6.9927,-6.9943,-6.9956,0,0,0,0,0,-6.9273,-6.9364,-6.9348,-6.9366,-6.9454,-6.9528,-6.9539,-6.9532,-6.9491,-6.9534,-6.9545,-6.9515,-6.966,-6.9612,-6.9629,-6.9689,-6.9833,-6.9842,-6.9851,-6.992,-6.994,-6.9956,0,0,0,0,0,0,-6.9334,-6.9368,-6.9351,-6.9455,-6.949,-6.9519,-6.9573,-6.9553,-6.9598,-6.9589,-6.9577,-6.9585,-6.9677,-6.9691,-6.9637,-6.9799,-6.974,-6.9753,-6.9787,-6.9805,-6.9819,-6.9814,-6.9576,0,0,0,0,0,-6.936,-6.942,-6.9445,-6.9535,-6.9553,-6.9561,-6.9593,-6.9585,-6.9619,-6.9633,-6.965,-6.9683,-6.9736,-6.9771,-6.9821,-6.9929,-6.9935,-6.9978,-6.9993,-7.0005,-7.0016,-7.0075,-7.0095,-6.9885,-6.9885,-6.9885,0,0,-6.9413,-6.9439,-6.9477,-6.9548,-6.9573,-6.9634,-6.9573,-6.9639,-6.9684,-6.9642,-6.9727,-6.9741,-6.9776,-6.9875,-6.9919,-6.989,-7.0076,-7.0016,-7.0026,-7.0031,-7.0087,-7.0106,-7.0124,-6.9891,-6.989,-6.9889,0,0,-6.9542,-6.9568,-6.9646,-6.9674,-6.9714,-6.9719,-6.9738,-6.9771,-6.978,-6.9865,-6.9835,-6.9887,-6.9978,-7.0006,-7.0032,-7.0173,-7.0147,-7.0189,-7.0265,-7.0323,-7.034,-7.0354,-7.0406,-7.0424,-7.02,-7.02,-7.02,0,-6.9603,-6.9696,-6.9688,-6.9759,-6.979,-6.9757,-6.9836,-6.9862,-6.9916,-6.9938,-6.9905,-7.0021,-7.0042,-7.0147,-7.0182,-7.0204,-7.0225,-7.0185,-7.0338,-7.0353,-7.0366,-7.0415,-7.0434,-7.0205,-7.0205,-7.0204,-7.0204,0,-6.9769,-6.9833,-6.9891,-6.9948,-6.9986,-7.0059,-7.0062,-7.0102,-7.009,-7.0098,-7.0185,-7.0211,-7.0266,-7.029,-7.0278,-7.0394,-7.0374,-7.034,-7.028,-7.0392,-7.0437,-7.0455,-7.0212,-7.0211,-7.0209,-7.0208,0,0,-6.9938,-6.9991,-7.0012,-7.0038,-7.0081,-7.0129,-7.0201,-7.0257,-7.0292,-7.033,-7.039,-7.0469,-7.0438,-7.0468,-7.0459,-7.051,-7.0621,-7.0469,-7.047,-7.0497,-7.0751,-7.0777,-7.0799,-7.0604,-7.0607,-7.061,-7.0748,0,-7.007,-7.0199,-7.0195,-7.0314,-7.0374,-7.0343,-7.0406,-7.0439,-7.0448,-7.0499,-7.0508,-7.0565,-7.0519,-7.0537,-7.0586,-7.0597,-7.0672,-7.0587,-7.0659,-7.0662,-7.0652,-7.0822,-7.085,-7.0979,-7.0766,-7.0769,-7.0771,0,-7.0242,-7.0289,-7.0415,-7.0451,-7.0475,-7.0532,-7.0584,-7.0633,-7.0669,-7.0672,-7.0706,-7.069,-7.0762,-7.07,-7.0799,-7.0742,-7.0771,-7.0781,-7.0786,-7.0793,-7.0724,-7.0835,-7.102,-7.104,-7.0799,-7.0796,-7.0794,0,-7.0354,-7.0448,-7.0536,-7.0559,-7.0602,-7.0643,-7.0663,-7.0696,-7.073,-7.0774,-7.0796,-7.0848,-7.0876,-7.0916,-7.0913,-7.0868,-7.1014,-7.0952,-7.1018,-7.1019,-7.1051,-7.1049,-7.1244,-7.1068,-7.1068,-7.1068,-7.1067,0,-7.0502,-7.0581,-7.0588,-7.0642,-7.0729,-7.0723,-7.0809,-7.0824,-7.0853,-7.0909,-7.0885,-7.0937,-7.0931,-7.0983,-7.0981,-7.1064,-7.1076,-7.1081,-7.1079,-7.1084,-7.1083,-7.1103,-7.1094,-7.1073,-7.1072,-7.1071,-7.107,0,-7.0643,-7.065,-7.0745,-7.0779,-7.0789,-7.0852,-7.0881,-7.0931,-7.0939,-7.101,-7.1026,-7.1038,-7.1098,-7.11,-7.1169,-7.1167,-7.1269,-7.1257,-7.1258,-7.1256,-7.1323,-7.1317,-7.1538,-7.1567,-7.1372,-7.1373,-7.1375,0,-7.0737,-7.0798,-7.0839,-7.0876,-7.0899,-7.0958,-7.0994,-7.099,-7.1028,-7.1075,-7.112,-7.1179,-7.1226,-7.1324,-7.1337,-7.139,-7.138,-7.1454,-7.1387,-7.139,-7.1382,-7.1379,-7.1385,-7.1467,-7.1469,-7.147,-7.1472,0,-7.0905,-7.0907,-7.096,-7.1016,-7.106,-7.1103,-7.1143,-7.1174,-7.1174,-7.1218,-7.1281,-7.1318,-7.1389,-7.1448,-7.1499,-7.1517,-7.1495,-7.1493,-7.1511,-7.1516,-7.1515,-7.1518,-7.1294,-7.1488,-7.1486,-7.1485,-7.1484,-7.1484,-7.1026,-7.1079,-7.1118,-7.1178,-7.1208,-7.1247,-7.1297,-7.1312,-7.1365,-7.1425,-7.1419,-7.1489,-7.1523,-7.1591,-7.1613,-7.1667,-7.1642,-7.1668,-7.1675,-7.1682,-7.1689,-7.1506,-7.1676,-7.1676,-7.1675,-7.1675,-7.1675,0,-7.1194,-7.1218,-7.1274,-7.1332,-7.138,-7.1356,-7.1399,-7.144,-7.1503,-7.1539,-7.1586,-7.1659,-7.1716,-7.1735,-7.179,-7.1829,-7.1821,-7.1844,-7.1841,-7.1846,-7.1709,-7.1688,-7.1851,-7.1851,-7.185,-7.185,-7.185,-7.185,-7.1287,-7.1376,-7.1382,-7.1485,-7.1507,-7.1578,-7.1604,-7.1639,-7.1668,-7.1751,-7.1799,-7.1812,-7.184,-7.1898,-7.1949,-7.1953,-7.1974,-7.2002,-7.2002,-7.1873,-7.1856,-7.1839,-7.1819,-7.2007,-7.2007,-7.2135,-7.2136,-7.2137]}]]